Location: Elmsmere
(40.9284°N, 73.8207°W)
Time: 22:45:36
(UTC+00:00)

ISS - Visible Passes

Search period start: 20 June 2021 00:00
Search period end: 30 June 2021 00:00
Orbit: 417 x 422 km, 51.6° (Epoch: 20 June)

Date Brightness Start Highest point End Pass type
(mag) Time Alt. Az. Time Alt. Az. Time Alt. Az.
25 Jun -1.5 08:24:12 10° S 08:26:26 17° SE 08:28:40 10° E visible
27 Jun -3.2 08:25:20 14° SSW 08:28:03 49° SE 08:31:20 10° ENE visible
28 Jun -2.4 07:39:43 24° SSE 07:40:42 28° SE 07:43:39 10° ENE visible
29 Jun -1.5 06:54:02 16° ESE 06:54:02 16° ESE 06:55:40 10° E visible
29 Jun -3.3 08:26:59 13° WSW 08:29:54 56° NNW 08:33:14 10° NE visible
